Find Starlink 1531

NORAD ID: 46572 Int'l Des: 2020-070 Owner: SPXS Country: US Constellation: starlink decayed
LEOCIRCULAR

Re-entered — Jul 6, 2026

3D地球を読み込み中...

About Starlink 1531

Starlink 1531 (NORAD 46572) is a starlink constellation satellite (v1.0) launched Oct 6, 2020 by SPXS of US. It re-entered the atmosphere on Jul 6, 2026. with a mass of 260.00 kg.

高度履歴

Loading altitude history...

軌道要素

1 46572U 20070AS 26186.80053744 .05982755 12170-4 12400-2 0 9992
2 46572 53.0273 266.5046 0011444 320.0984 39.9216 16.30106579318702
Epoch: Jul 5, 2026 • Age: 489 hours

現在のステータス

Position data unavailable
打ち上げ日 Oct 6, 2020
運用期間 5.7 years
落下予定日 Jul 6, 2026
タイプ internet

技術仕様

分類 Payload
質量 260.00 kg
乾燥質量 248.00 kg
総質量 260.00 kg
長さ 0.20 m
直径 2.80 m
スパン 9.00 m
形状 Box + pan
製造者 SPXS
バスタイプ Starlink
フェーズステータス Unknown Transfer Status
所有者/国 SPXS/US

Most Searched